Location: Gad�tanya
(48.0500°N, 20.8500°E)
Time: 22:27:59
(UTC+00:00)

SL-16 R/B - Pass Details

Date: 05 July 2020
Orbit: 842 x 846 km, 71.0° (Epoch: 05 August)

Event Time Altitude Azimuth Distance (km) Brightness Sun altitude
Rises 19:07:10 0° 212° (SSW) 3,390 5.2 -4.6°
Reaches altitude 10° 19:09:37 10° 214° (SW) 2,460 4.6 -4.9°
Maximum altitude 19:15:15 72° 299° (WNW) 889 2.6 -5.6°
Drops below altitude 10° 19:20:57 10° 25° (NNE) 2,478 4.9 -6.2°
Sets 19:23:25 0° 27° (NNE) 3,417 5.6 -6.5°
